Zurück zum Katalog

THOR ABLESTAR DEB

AktivLEO
NORAD 408·DEBRIS·🇺🇸 United States

Gestartet Jun 29, 1961 von Cape Canaveral Space Force Station

Loading…

Nächste Überflüge (nächste 24 Stunden)

TLE

AktuellSource: Space-Track

Epoche: Sep 6, 2026, 00:54 UTC

1 00408U 61015EH  26249.03770826  .00000273  00000-0  34557-3 0  9990
2 00408  66.7843 276.2037 0057663  64.8471 318.6183 13.77215173316830

Verfolge THOR ABLESTAR DEB in Echtzeit mit AllMySat

Download on the App Store